Time,TemperatureF,DewpointF,PressureIn,WindDirection,WindDirectionDegrees,WindSpeedMPH,WindSpeedGustMPH,Humidity,HourlyPrecipIn,Conditions,Clouds,dailyrainin,SoftwareType,DateUTC
2013-04-05 00:00:00,50.5,48.0,29.68,SSW,203,2.0,5.0,91,0.01,,,0.14,Wunderground PWS Mod,2013-04-05 07:00:00,
2013-04-05 00:10:00,50.5,48.0,29.68,SSE,158,3.0,6.0,91,0.01,,,0.14,Wunderground PWS Mod,2013-04-05 07:10:00,
2013-04-05 00:20:00,50.4,48.2,29.68,South,180,2.0,6.0,92,0.02,,,0.14,Wunderground PWS Mod,2013-04-05 07:20:00,
2013-04-05 00:30:00,50.2,48.0,29.68,South,180,2.0,5.0,92,0.02,,,0.14,Wunderground PWS Mod,2013-04-05 07:30:00,
2013-04-05 00:40:00,50.1,47.9,29.68,South,180,2.0,4.0,92,0.03,,,0.14,Wunderground PWS Mod,2013-04-05 07:40:00,
2013-04-05 00:50:00,50.1,47.9,29.68,South,180,2.0,7.0,92,0.03,,,0.14,Wunderground PWS Mod,2013-04-05 07:50:00,
2013-04-05 01:00:00,49.9,47.7,29.67,South,180,2.0,5.0,92,0.03,,,0.14,Wunderground PWS Mod,2013-04-05 08:00:00,
2013-04-05 01:10:00,49.8,47.6,29.67,SSW,203,3.0,5.0,92,0.04,,,0.14,Wunderground PWS Mod,2013-04-05 08:10:00,
2013-04-05 01:20:00,49.6,47.7,29.68,South,180,3.0,7.0,93,0.04,,,0.14,Wunderground PWS Mod,2013-04-05 08:20:00,
2013-04-05 01:30:00,49.5,47.6,29.67,SSE,158,3.0,7.0,93,0.04,,,0.14,Wunderground PWS Mod,2013-04-05 08:30:00,
2013-04-05 01:40:00,49.4,47.5,29.67,South,180,2.0,7.0,93,0.04,,,0.16,Wunderground PWS Mod,2013-04-05 08:40:00,
2013-04-05 01:50:00,49.4,47.5,29.68,SSE,158,2.0,5.0,93,0.05,,,0.16,Wunderground PWS Mod,2013-04-05 08:50:00,
2013-04-05 02:10:00,49.2,47.3,29.68,SE,135,3.0,7.0,93,0.11,,,0.16,Wunderground PWS Mod,2013-04-05 09:10:00,
2013-04-05 02:20:00,49.1,47.2,29.69,SSW,203,3.0,5.0,93,0.12,,,0.17,Wunderground PWS Mod,2013-04-05 09:20:00,
2013-04-05 02:30:00,48.8,46.9,29.69,South,180,3.0,9.0,93,0.13,,,0.19,Wunderground PWS Mod,2013-04-05 09:30:00,
2013-04-05 02:40:00,48.5,46.9,29.69,SSW,203,3.0,7.0,94,0.14,,,0.21,Wunderground PWS Mod,2013-04-05 09:40:00,
2013-04-05 02:50:00,48.5,46.9,29.69,South,180,3.0,10.0,94,0.13,,,0.21,Wunderground PWS Mod,2013-04-05 09:50:00,
2013-04-05 03:00:00,48.3,46.7,29.69,South,180,3.0,6.0,94,0.10,,,0.22,Wunderground PWS Mod,2013-04-05 10:00:00,
2013-04-05 03:10:00,49.4,47.5,29.68,SE,128,2.0,5.0,93,0.19,,,0.15,Wunderground PWS Mod,2013-04-05 10:10:00,
2013-04-05 03:20:00,49.1,47.2,29.69,SSE,154,3.0,9.0,93,0.12,,,0.17,Wunderground PWS Mod,2013-04-05 10:20:00,
2013-04-05 03:30:00,48.8,46.9,29.69,SSE,155,3.0,9.0,93,0.06,,,0.18,Wunderground PWS Mod,2013-04-05 10:30:00,
2013-04-05 03:40:00,48.6,46.7,29.69,SSE,166,2.0,4.0,93,0.08,,,0.19,Wunderground PWS Mod,2013-04-05 10:40:00,
2013-04-05 03:50:00,48.5,46.9,29.69,SSW,192,3.0,7.0,94,0.11,,,0.21,Wunderground PWS Mod,2013-04-05 10:50:00,
2013-04-05 04:00:00,48.3,46.7,29.69,South,183,3.0,9.0,94,0.04,,,0.21,Wunderground PWS Mod,2013-04-05 11:00:00,
2013-04-05 04:10:00,48.3,46.7,29.69,SSE,161,3.0,6.0,94,0.09,,,0.23,Wunderground PWS Mod,2013-04-05 11:10:00,
2013-04-05 04:20:00,48.3,46.7,29.69,SE,146,3.0,7.0,94,0.05,,,0.23,Wunderground PWS Mod,2013-04-05 11:20:00,
2013-04-05 04:30:00,48.2,46.6,29.69,SE,140,4.0,7.0,94,0.05,,,0.24,Wunderground PWS Mod,2013-04-05 11:30:00,
2013-04-05 04:40:00,48.2,46.6,29.69,South,169,3.0,5.0,94,0.13,,,0.26,Wunderground PWS Mod,2013-04-05 11:40:00,
2013-04-05 04:50:00,48.0,46.4,29.69,SSE,166,3.0,7.0,94,0.06,,,0.28,Wunderground PWS Mod,2013-04-05 11:50:00,
2013-04-05 05:00:00,48.0,46.4,29.69,South,180,4.0,7.0,94,0.06,,,0.28,Wunderground PWS Mod,2013-04-05 12:00:00,
2013-04-05 05:10:00,47.9,46.3,29.69,SSE,163,4.0,9.0,94,0.04,,,0.29,Wunderground PWS Mod,2013-04-05 12:10:00,
2013-04-05 05:20:00,47.9,46.3,29.70,SSE,159,3.0,7.0,94,0.04,,,0.29,Wunderground PWS Mod,2013-04-05 12:20:00,
2013-04-05 05:30:00,47.9,46.3,29.70,South,184,3.0,5.0,94,0.00,,,0.30,Wunderground PWS Mod,2013-04-05 12:30:00,
2013-04-05 05:40:00,47.7,46.1,29.70,South,187,3.0,10.0,94,0.00,,,0.30,Wunderground PWS Mod,2013-04-05 12:40:00,
2013-04-05 05:50:00,47.9,46.3,29.71,SSE,154,3.0,6.0,94,0.00,,,0.31,Wunderground PWS Mod,2013-04-05 12:50:00,
2013-04-05 06:00:00,47.7,46.3,29.71,SE,136,3.0,12.0,95,0.00,,,0.31,Wunderground PWS Mod,2013-04-05 13:00:00,
2013-04-05 06:10:00,47.9,46.5,29.71,South,190,3.0,10.0,95,0.00,,,0.31,Wunderground PWS Mod,2013-04-05 13:10:00,
2013-04-05 06:20:00,47.9,46.5,29.71,South,171,3.0,6.0,95,0.00,,,0.31,Wunderground PWS Mod,2013-04-05 13:20:00,
2013-04-05 06:30:00,48.0,46.6,29.71,SE,144,3.0,7.0,95,0.00,,,0.31,Wunderground PWS Mod,2013-04-05 13:30:00,
2013-04-05 06:40:00,48.0,46.6,29.71,SSE,148,3.0,7.0,95,0.00,,,0.31,Wunderground PWS Mod,2013-04-05 13:40:00,
2013-04-05 06:50:00,48.0,46.6,29.72,SSE,161,3.0,6.0,95,0.00,,,0.31,Wunderground PWS Mod,2013-04-05 13:50:00,
2013-04-05 07:00:00,48.0,46.6,29.72,South,189,255.0,255.0,95,0.00,,,0.31,Wunderground PWS Mod,2013-04-05 14:00:00,
2013-04-05 07:10:00,-999.9,-99.9,29.73,North,32767,255.0,255.0,255,-99.99,,,0.31,Wunderground PWS Mod,2013-04-05 14:10:00,
2013-04-05 07:20:00,-999.9,-99.9,29.73,North,32767,255.0,255.0,255,-99.99,,,0.31,Wunderground PWS Mod,2013-04-05 14:20:00,
2013-04-05 07:30:00,-999.9,-99.9,29.73,North,32767,255.0,255.0,255,-99.99,,,0.31,Wunderground PWS Mod,2013-04-05 14:30:00,
2013-04-05 07:40:00,-999.9,-99.9,29.75,North,32767,255.0,255.0,255,-99.99,,,0.31,Wunderground PWS Mod,2013-04-05 14:40:00,
2013-04-05 07:50:00,-999.9,-99.9,29.75,North,32767,255.0,255.0,255,-99.99,,,0.31,Wunderground PWS Mod,2013-04-05 14:50:00,
2013-04-05 08:00:00,-999.9,-99.9,29.75,North,32767,255.0,255.0,255,-99.99,,,0.31,Wunderground PWS Mod,2013-04-05 15:00:00,
2013-04-05 08:10:00,-999.9,-99.9,29.76,North,32767,255.0,255.0,255,-99.99,,,0.31,Wunderground PWS Mod,2013-04-05 15:10:00,
2013-04-05 08:20:00,-999.9,-99.9,29.77,North,32767,255.0,255.0,255,-99.99,,,0.31,Wunderground PWS Mod,2013-04-05 15:20:00,
2013-04-05 08:30:00,-999.9,-99.9,29.77,North,32767,255.0,255.0,255,-99.99,,,0.31,Wunderground PWS Mod,2013-04-05 15:30:00,
2013-04-05 08:40:00,-999.9,-99.9,29.77,North,32767,255.0,255.0,255,-99.99,,,0.31,Wunderground PWS Mod,2013-04-05 15:40:00,
2013-04-05 08:50:00,48.6,47.2,29.78,SSW,193,3.0,7.0,95,0.00,,,0.31,Wunderground PWS Mod,2013-04-05 15:50:00,
2013-04-05 09:00:00,48.6,47.2,29.78,South,170,3.0,10.0,95,0.00,,,0.31,Wunderground PWS Mod,2013-04-05 16:00:00,
2013-04-05 09:10:00,48.6,47.2,29.79,South,178,3.0,7.0,95,0.00,,,0.31,Wunderground PWS Mod,2013-04-05 16:10:00,
2013-04-05 09:20:00,48.6,47.2,29.79,SE,126,2.0,5.0,95,0.00,,,0.31,Wunderground PWS Mod,2013-04-05 16:20:00,
2013-04-05 09:30:00,48.6,47.2,29.79,ESE,111,3.0,7.0,95,0.00,,,0.31,Wunderground PWS Mod,2013-04-05 16:30:00,
2013-04-05 09:40:00,48.8,47.4,29.79,SSW,194,3.0,6.0,95,0.00,,,0.31,Wunderground PWS Mod,2013-04-05 16:40:00,
2013-04-05 09:50:00,48.8,47.4,29.79,SE,142,3.0,7.0,95,0.00,,,0.31,Wunderground PWS Mod,2013-04-05 16:50:00,
2013-04-05 10:00:00,48.8,47.4,29.79,South,178,2.0,6.0,95,0.00,,,0.31,Wunderground PWS Mod,2013-04-05 17:00:00,
2013-04-05 10:10:00,49.1,47.7,29.80,SE,144,3.0,6.0,95,0.00,,,0.31,Wunderground PWS Mod,2013-04-05 17:10:00,
2013-04-05 10:20:00,49.4,48.0,29.80,SW,220,2.0,6.0,95,0.00,,,0.31,Wunderground PWS Mod,2013-04-05 17:20:00,
2013-04-05 10:30:00,49.5,48.1,29.80,SSE,167,3.0,6.0,95,0.00,,,0.31,Wunderground PWS Mod,2013-04-05 17:30:00,
2013-04-05 10:40:00,49.4,48.0,29.80,ESE,113,3.0,5.0,95,0.00,,,0.31,Wunderground PWS Mod,2013-04-05 17:40:00,
2013-04-05 10:50:00,49.2,47.8,29.81,SE,132,3.0,7.0,95,0.00,,,0.31,Wunderground PWS Mod,2013-04-05 17:50:00,
2013-04-05 11:00:00,49.4,48.0,29.81,SSE,165,3.0,5.0,95,0.00,,,0.31,Wunderground PWS Mod,2013-04-05 18:00:00,
2013-04-05 11:10:00,49.1,47.7,29.80,South,184,3.0,5.0,95,0.00,,,0.31,Wunderground PWS Mod,2013-04-05 18:10:00,
2013-04-05 11:20:00,49.1,47.7,29.81,SSE,147,2.0,5.0,95,0.00,,,0.31,Wunderground PWS Mod,2013-04-05 18:20:00,
2013-04-05 11:30:00,48.9,47.5,29.81,SSW,202,3.0,6.0,95,0.00,,,0.31,Wunderground PWS Mod,2013-04-05 18:30:00,
2013-04-05 11:40:00,48.9,47.5,29.82,SE,138,2.0,5.0,95,0.00,,,0.31,Wunderground PWS Mod,2013-04-05 18:40:00,
2013-04-05 11:50:00,49.1,47.7,29.82,South,172,3.0,5.0,95,0.00,,,0.31,Wunderground PWS Mod,2013-04-05 18:50:00,
2013-04-05 12:00:00,49.4,48.0,29.82,SSE,163,2.0,5.0,95,0.00,,,0.31,Wunderground PWS Mod,2013-04-05 19:00:00,
2013-04-05 12:10:00,49.6,48.2,29.82,SSW,210,2.0,7.0,95,0.00,,,0.31,Wunderground PWS Mod,2013-04-05 19:10:00,
2013-04-05 12:20:00,49.9,48.5,29.82,ESE,119,2.0,9.0,95,0.00,,,0.31,Wunderground PWS Mod,2013-04-05 19:20:00,
2013-04-05 12:30:00,49.9,48.2,29.82,SSE,153,3.0,6.0,94,0.00,,,0.31,Wunderground PWS Mod,2013-04-05 19:30:00,
2013-04-05 12:40:00,51.1,49.4,29.81,SE,139,2.0,6.0,94,0.00,,,0.31,Wunderground PWS Mod,2013-04-05 19:40:00,
2013-04-05 12:50:00,51.0,48.8,29.81,South,169,2.0,5.0,92,0.00,,,0.31,Wunderground PWS Mod,2013-04-05 19:50:00,
2013-04-05 13:00:00,50.8,48.3,29.81,SSE,156,2.0,6.0,91,0.00,,,0.31,Wunderground PWS Mod,2013-04-05 20:00:00,
2013-04-05 13:10:00,50.7,47.9,29.81,SE,133,2.0,7.0,90,0.00,,,0.31,Wunderground PWS Mod,2013-04-05 20:10:00,
2013-04-05 13:20:00,50.7,47.9,29.82,ESE,117,2.0,5.0,90,0.00,,,0.31,Wunderground PWS Mod,2013-04-05 20:20:00,
2013-04-05 13:30:00,51.4,48.6,29.82,SSE,160,3.0,6.0,90,0.00,,,0.31,Wunderground PWS Mod,2013-04-05 20:30:00,
2013-04-05 13:40:00,52.2,49.1,29.82,SE,141,2.0,4.0,89,0.00,,,0.31,Wunderground PWS Mod,2013-04-05 20:40:00,
2013-04-05 13:50:00,52.2,48.1,29.82,SSE,167,3.0,6.0,86,0.00,,,0.31,Wunderground PWS Mod,2013-04-05 20:50:00,
2013-04-05 14:00:00,52.2,48.1,29.82,SSE,148,1.0,5.0,86,0.00,,,0.31,Wunderground PWS Mod,2013-04-05 21:00:00,
2013-04-05 14:10:00,52.2,47.8,29.82,South,178,2.0,4.0,85,0.00,,,0.31,Wunderground PWS Mod,2013-04-05 21:10:00,
2013-04-05 14:20:00,52.0,47.6,29.82,South,183,1.0,4.0,85,0.00,,,0.31,Wunderground PWS Mod,2013-04-05 21:20:00,
2013-04-05 14:30:00,51.9,47.5,29.82,ESE,109,1.0,5.0,85,0.00,,,0.31,Wunderground PWS Mod,2013-04-05 21:30:00,
2013-04-05 14:40:00,51.6,46.9,29.82,South,178,1.0,4.0,84,0.00,,,0.31,Wunderground PWS Mod,2013-04-05 21:40:00,
2013-04-05 14:50:00,51.6,47.2,29.82,SSE,163,1.0,4.0,85,0.00,,,0.31,Wunderground PWS Mod,2013-04-05 21:50:00,
2013-04-05 15:00:00,51.7,47.3,29.82,SSE,167,1.0,5.0,85,0.00,,,0.31,Wunderground PWS Mod,2013-04-05 22:00:00,
2013-04-05 15:10:00,51.9,47.5,29.82,SE,141,2.0,4.0,85,0.00,,,0.31,Wunderground PWS Mod,2013-04-05 22:10:00,
2013-04-05 15:20:00,52.0,47.3,29.82,SE,142,2.0,4.0,84,0.00,,,0.31,Wunderground PWS Mod,2013-04-05 22:20:00,
2013-04-05 15:30:00,52.2,47.2,29.82,SE,141,2.0,5.0,83,0.00,,,0.31,Wunderground PWS Mod,2013-04-05 22:30:00,
2013-04-05 15:40:00,52.3,47.0,29.81,WSW,243,3.0,7.0,82,0.00,,,0.31,Wunderground PWS Mod,2013-04-05 22:40:00,
2013-04-05 15:50:00,52.3,46.6,29.82,South,169,3.0,9.0,81,0.00,,,0.31,Wunderground PWS Mod,2013-04-05 22:50:00,
2013-04-05 16:00:00,52.3,46.6,29.82,South,169,3.0,9.0,81,0.00,,,0.31,Wunderground PWS Mod,2013-04-05 23:00:00,
2013-04-05 16:10:00,52.5,47.2,29.82,SE,127,2.0,4.0,82,0.00,,,0.31,Wunderground PWS Mod,2013-04-05 23:10:00,
2013-04-05 16:20:00,52.3,46.6,29.82,SSE,162,3.0,5.0,81,0.00,,,0.31,Wunderground PWS Mod,2013-04-05 23:20:00,
2013-04-05 16:30:00,52.5,47.2,29.82,South,180,2.0,5.0,82,0.00,,,0.31,Wunderground PWS Mod,2013-04-05 23:30:00,
2013-04-05 16:40:00,52.3,47.3,29.82,SE,140,2.0,6.0,83,0.00,,,0.31,Wunderground PWS Mod,2013-04-05 23:40:00,
2013-04-05 16:50:00,52.2,47.8,29.82,South,186,1.0,3.0,85,0.00,,,0.31,Wunderground PWS Mod,2013-04-05 23:50:00,
2013-04-05 17:00:00,51.9,47.8,29.82,SSE,161,1.0,3.0,86,0.10,,,0.33,Wunderground PWS Mod,2013-04-06 00:00:00,
2013-04-05 17:10:00,51.4,47.7,29.82,ESE,121,1.0,3.0,87,0.06,,,0.33,Wunderground PWS Mod,2013-04-06 00:10:00,
2013-04-05 17:20:00,51.0,47.6,29.81,SSE,155,1.0,4.0,88,0.08,,,0.35,Wunderground PWS Mod,2013-04-06 00:20:00,
2013-04-05 17:30:00,50.8,47.7,29.81,SSE,157,1.0,3.0,89,0.05,,,0.35,Wunderground PWS Mod,2013-04-06 00:30:00,
2013-04-05 17:40:00,50.7,47.9,29.81,SE,125,1.0,3.0,90,0.00,,,0.35,Wunderground PWS Mod,2013-04-06 00:40:00,
2013-04-05 17:50:00,50.4,47.6,29.81,SSE,153,1.0,2.0,90,0.38,,,0.39,Wunderground PWS Mod,2013-04-06 00:50:00,
2013-04-05 18:00:00,50.1,47.6,29.81,SSW,198,1.0,4.0,91,0.06,,,0.40,Wunderground PWS Mod,2013-04-06 01:00:00,
2013-04-05 18:10:00,49.9,47.4,29.81,SE,140,2.0,5.0,91,0.06,,,0.41,Wunderground PWS Mod,2013-04-06 01:10:00,
2013-04-05 18:20:00,49.6,47.4,29.80,South,189,2.0,5.0,92,0.05,,,0.41,Wunderground PWS Mod,2013-04-06 01:20:00,
2013-04-05 18:30:00,49.5,47.3,29.80,South,178,1.0,3.0,92,0.00,,,0.41,Wunderground PWS Mod,2013-04-06 01:30:00,
2013-04-05 18:40:00,49.2,47.0,29.79,SSE,165,2.0,4.0,92,0.00,,,0.41,Wunderground PWS Mod,2013-04-06 01:40:00,
2013-04-05 18:50:00,48.9,46.7,29.79,ESE,116,2.0,4.0,92,0.00,,,0.42,Wunderground PWS Mod,2013-04-06 01:50:00,
2013-04-05 19:00:00,48.6,46.4,29.79,SSE,165,2.0,4.0,92,0.05,,,0.43,Wunderground PWS Mod,2013-04-06 02:00:00,
2013-04-05 19:10:00,48.6,46.7,29.79,SSE,168,2.0,4.0,93,0.06,,,0.44,Wunderground PWS Mod,2013-04-06 02:10:00,
2013-04-05 19:20:00,48.5,46.6,29.79,SSE,163,2.0,4.0,93,0.09,,,0.45,Wunderground PWS Mod,2013-04-06 02:20:00,
2013-04-05 19:30:00,48.3,46.4,29.79,SSW,211,2.0,4.0,93,0.09,,,0.47,Wunderground PWS Mod,2013-04-06 02:30:00,
2013-04-05 19:40:00,48.2,46.3,29.79,South,185,1.0,3.0,93,0.06,,,0.47,Wunderground PWS Mod,2013-04-06 02:40:00,
2013-04-05 19:50:00,-999.9,-99.9,29.78,North,32767,255.0,255.0,255,-99.99,,,0.47,Wunderground PWS Mod,2013-04-06 02:50:00,
2013-04-05 20:00:00,-999.9,-99.9,29.78,North,32767,255.0,255.0,255,-99.99,,,0.47,Wunderground PWS Mod,2013-04-06 03:00:00,
2013-04-05 20:10:00,-999.9,-99.9,29.76,North,32767,255.0,255.0,255,-99.99,,,0.47,Wunderground PWS Mod,2013-04-06 03:10:00,
2013-04-05 20:20:00,-999.9,-99.9,29.78,North,32767,255.0,255.0,255,-99.99,,,0.47,Wunderground PWS Mod,2013-04-06 03:20:00,
2013-04-05 20:30:00,-999.9,-99.9,29.78,North,32767,255.0,255.0,255,-99.99,,,0.47,Wunderground PWS Mod,2013-04-06 03:30:00,
2013-04-05 20:40:00,-999.9,-99.9,29.78,North,32767,255.0,255.0,255,-99.99,,,0.47,Wunderground PWS Mod,2013-04-06 03:40:00,
2013-04-05 20:50:00,-999.9,-99.9,29.78,North,32767,255.0,255.0,255,-99.99,,,0.47,Wunderground PWS Mod,2013-04-06 03:50:00,
2013-04-05 21:00:00,-999.9,-99.9,29.78,North,32767,255.0,255.0,255,-99.99,,,0.47,Wunderground PWS Mod,2013-04-06 04:00:00,
2013-04-05 21:10:00,-999.9,-99.9,29.78,North,32767,255.0,255.0,255,-99.99,,,0.47,Wunderground PWS Mod,2013-04-06 04:10:00,
2013-04-05 21:20:00,-999.9,-99.9,29.79,North,32767,255.0,255.0,255,-99.99,,,0.47,Wunderground PWS Mod,2013-04-06 04:20:00,
2013-04-05 21:30:00,-999.9,-99.9,29.79,North,32767,255.0,255.0,255,-99.99,,,0.47,Wunderground PWS Mod,2013-04-06 04:30:00,
2013-04-05 21:40:00,-999.9,-99.9,29.79,North,32767,255.0,255.0,255,-99.99,,,0.47,Wunderground PWS Mod,2013-04-06 04:40:00,
2013-04-05 21:50:00,-999.9,-99.9,29.77,North,32767,255.0,255.0,255,-99.99,,,0.47,Wunderground PWS Mod,2013-04-06 04:50:00,
2013-04-05 22:00:00,-999.9,-99.9,29.77,North,32767,255.0,255.0,255,-99.99,,,0.47,Wunderground PWS Mod,2013-04-06 05:00:00,
2013-04-05 22:10:00,-999.9,-99.9,29.77,North,32767,255.0,255.0,255,-99.99,,,0.47,Wunderground PWS Mod,2013-04-06 05:10:00,
2013-04-05 22:20:00,-999.9,-99.9,29.76,North,32767,255.0,255.0,255,-99.99,,,0.47,Wunderground PWS Mod,2013-04-06 05:20:00,
2013-04-05 22:30:00,-999.9,-99.9,29.76,North,32767,255.0,255.0,255,-99.99,,,0.47,Wunderground PWS Mod,2013-04-06 05:30:00,
2013-04-05 22:40:00,-999.9,-99.9,29.76,North,32767,255.0,255.0,255,-99.99,,,0.47,Wunderground PWS Mod,2013-04-06 05:40:00,
2013-04-05 22:50:00,-999.9,-99.9,29.74,North,32767,255.0,255.0,255,-99.99,,,0.47,Wunderground PWS Mod,2013-04-06 05:50:00,
2013-04-05 23:00:00,-999.9,-99.9,29.74,North,32767,255.0,255.0,255,-99.99,,,0.47,Wunderground PWS Mod,2013-04-06 06:00:00,
2013-04-05 23:10:00,-999.9,-99.9,29.73,North,32767,255.0,255.0,255,-99.99,,,0.47,Wunderground PWS Mod,2013-04-06 06:10:00,
2013-04-05 23:20:00,-999.9,-99.9,29.72,North,32767,255.0,255.0,255,-99.99,,,0.47,Wunderground PWS Mod,2013-04-06 06:20:00,
2013-04-05 23:30:00,-999.9,-99.9,29.72,North,32767,255.0,255.0,255,-99.99,,,0.47,Wunderground PWS Mod,2013-04-06 06:30:00,
2013-04-05 23:40:00,-999.9,-99.9,29.71,North,32767,255.0,255.0,255,-99.99,,,0.47,Wunderground PWS Mod,2013-04-06 06:40:00,
2013-04-05 23:50:00,-999.9,-99.9,29.70,North,32767,255.0,255.0,255,-99.99,,,0.47,Wunderground PWS Mod,2013-04-06 06:50:00,